• In Hungary
  • List of Countries
  • For 7 days
  • Water Temperature
  • Satellite Maps
  • Weather Map
  • News
  • Weather Widgets
  • user-avatar
    Login

    Hourly Weather Linevka

    Today, 20 July, Friday

    Time Temperature Precipitation Wind Pressure Humidity
    00:00 +27°C° 0 mm 3 mps 749 mmHg 54%
    01:00 +26°C° 0 mm 3 mps 749 mmHg 58%
    02:00 +26°C° 0 mm 3 mps 749 mmHg 60%
    03:00 +25°C° 0 mm 3 mps 749 mmHg 62%
    04:00 +25°C° 0 mm 3 mps 749 mmHg 63%
    05:00 +26°C° 0 mm 3 mps 749 mmHg 61%
    06:00 +27°C° 0 mm 3 mps 749 mmHg 59%
    07:00 +27°C° 0 mm 4 mps 749 mmHg 56%
    08:00 +29°C° 0 mm 4 mps 749 mmHg 51%
    09:00 +32°C° 0 mm 4 mps 749 mmHg 45%
    10:00 +34°C° 0 mm 4 mps 748 mmHg 39%
    11:00 +35°C° 0 mm 4 mps 748 mmHg 36%
    12:00 +36°C° 0 mm 4 mps 748 mmHg 34%
    13:00 +36°C° 0 mm 4 mps 748 mmHg 32%
    14:00 +36°C° 0 mm 4 mps 748 mmHg 33%
    15:00 +36°C° 0 mm 4 mps 748 mmHg 34%
    16:00 +35°C° 0 mm 4 mps 748 mmHg 34%
    17:00 +34°C° 0 mm 4 mps 748 mmHg 38%
    18:00 +33°C° 0 mm 4 mps 748 mmHg 41%
    19:00 +33°C° 0 mm 4 mps 748 mmHg 45%
    20:00 +30°C° 0 mm 4 mps 748 mmHg 48%
    21:00 +29°C° 0 mm 4 mps 748 mmHg 51%
    22:00 +28°C° 0 mm 4 mps 748 mmHg 55%
    23:00 +28°C° 0 mm 4 mps 748 mmHg 59%

    Tomorrow, 21 July, Saturday

    Time Temperature Precipitation Wind Pressure Humidity
    00:00 +27°C° 0 mm 4 mps 747 mmHg 62%
    01:00 +26°C° 0 mm 4 mps 747 mmHg 66%
    02:00 +26°C° 0 mm 4 mps 747 mmHg 68%
    03:00 +25°C° 0 mm 4 mps 747 mmHg 69%
    04:00 +25°C° 0 mm 4 mps 747 mmHg 71%
    05:00 +25°C° 0 mm 4 mps 747 mmHg 70%
    06:00 +25°C° 0 mm 5 mps 747 mmHg 69%
    07:00 +26°C° 0 mm 5 mps 747 mmHg 68%
    08:00 +27°C° 0 mm 6 mps 747 mmHg 64%
    09:00 +29°C° 0 mm 6 mps 747 mmHg 60%
    10:00 +30°C° 0 mm 6 mps 747 mmHg 55%
    11:00 +32°C° 0 mm 6 mps 747 mmHg 52%
    12:00 +33°C° 0 mm 6 mps 747 mmHg 49%
    13:00 +34°C° 0 mm 7 mps 747 mmHg 45%
    14:00 +34°C° 0 mm 7 mps 747 mmHg 46%
    15:00 +33°C° 0 mm 7 mps 747 mmHg 47%
    16:00 +33°C° 0 mm 8 mps 747 mmHg 48%
    17:00 +32°C° 0.2 mm 8 mps 747 mmHg 52%
    18:00 +29°C° 0.2 mm 8 mps 747 mmHg 56%
    19:00 +28°C° 0.2 mm 9 mps 747 mmHg 60%
    20:00 +26°C° 0.2 mm 8 mps 747 mmHg 63%
    21:00 +24°C° 0.2 mm 8 mps 747 mmHg 66%
    22:00 +23°C° 0.2 mm 8 mps 747 mmHg 69%
    23:00 +22°C° 0 mm 8 mps 747 mmHg 70%

    Day after tomorrow, 22 July, Sunday

    Time Temperature Precipitation Wind Pressure Humidity
    00:00 +22°C° 0 mm 7 mps 747 mmHg 71%
    01:00 +21°C° 0 mm 6 mps 747 mmHg 72%
    02:00 +21°C° 0 mm 6 mps 747 mmHg 73%
    03:00 +21°C° 0 mm 7 mps 747 mmHg 74%
    04:00 +21°C° 0 mm 7 mps 747 mmHg 74%
    05:00 +21°C° 0 mm 7 mps 747 mmHg 73%
    06:00 +21°C° 0 mm 8 mps 747 mmHg 72%
    07:00 +22°C° 0 mm 8 mps 747 mmHg 70%
    08:00 +23°C° 0 mm 8 mps 748 mmHg 66%
    09:00 +24°C° 0 mm 8 mps 748 mmHg 62%
    10:00 +26°C° 0 mm 8 mps 748 mmHg 58%
    11:00 +27°C° 0 mm 8 mps 748 mmHg 55%
    12:00 +28°C° 0 mm 8 mps 748 mmHg 52%
    13:00 +28°C° 0 mm 8 mps 748 mmHg 48%
    14:00 +28°C° 0 mm 8 mps 749 mmHg 47%
    15:00 +29°C° 0 mm 8 mps 749 mmHg 45%
    16:00 +29°C° 0 mm 8 mps 749 mmHg 43%
    17:00 +28°C° 0 mm 8 mps 749 mmHg 44%
    18:00 +27°C° 0 mm 8 mps 749 mmHg 45%
    19:00 +26°C° 0 mm 8 mps 750 mmHg 45%
    20:00 +24°C° 0 mm 7 mps 750 mmHg 46%
    21:00 +23°C° 0 mm 7 mps 751 mmHg 47%
    22:00 +22°C° 0 mm 6 mps 751 mmHg 47%
    23:00 +21°C° 0 mm 6 mps 751 mmHg 47%

    23 July, Monday

    Time Temperature Precipitation Wind Pressure Humidity
    00:00 +21°C° 0 mm 7 mps 751 mmHg 46%
    01:00 +20°C° 0 mm 7 mps 752 mmHg 45%
    02:00 +18°C° 0 mm 7 mps 752 mmHg 47%
    03:00 +18°C° 0 mm 7 mps 752 mmHg 48%
    04:00 +17°C° 0 mm 8 mps 752 mmHg 49%
    05:00 +17°C° 0 mm 8 mps 752 mmHg 50%
    06:00 +18°C° 0 mm 8 mps 753 mmHg 52%
    07:00 +18°C° 0 mm 9 mps 753 mmHg 53%
    08:00 +19°C° 0 mm 9 mps 753 mmHg 49%
    09:00 +22°C° 0 mm 9 mps 753 mmHg 45%
    10:00 +23°C° 0 mm 8 mps 753 mmHg 41%
    11:00 +24°C° 0 mm 8 mps 753 mmHg 38%
    12:00 +26°C° 0 mm 8 mps 753 mmHg 34%
    13:00 +27°C° 0 mm 8 mps 753 mmHg 31%
    14:00 +28°C° 0 mm 8 mps 753 mmHg 30%
    15:00 +28°C° 0 mm 8 mps 753 mmHg 29%
    16:00 +28°C° 0 mm 7 mps 753 mmHg 28%
    17:00 +28°C° 0 mm 7 mps 753 mmHg 31%
    18:00 +27°C° 0 mm 6 mps 754 mmHg 33%
    19:00 +27°C° 0 mm 6 mps 754 mmHg 36%
    20:00 +24°C° 0 mm 6 mps 754 mmHg 39%
    21:00 +23°C° 0 mm 6 mps 755 mmHg 42%
    22:00 +22°C° 0 mm 6 mps 755 mmHg 45%
    23:00 +21°C° 0 mm 6 mps 755 mmHg 45%

    24 July, Tuesday

    Time Temperature Precipitation Wind Pressure Humidity
    00:00 +21°C° 0 mm 6 mps 755 mmHg 45%
    01:00 +20°C° 0 mm 6 mps 755 mmHg 45%
    02:00 +19°C° 0 mm 6 mps 755 mmHg 46%
    03:00 +19°C° 0 mm 6 mps 755 mmHg 46%
    04:00 +17°C° 0 mm 5 mps 756 mmHg 47%
    05:00 +19°C° 0 mm 6 mps 756 mmHg 47%
    06:00 +19°C° 0 mm 6 mps 756 mmHg 47%
    07:00 +20°C° 0 mm 6 mps 756 mmHg 47%
    08:00 +22°C° 0 mm 6 mps 756 mmHg 42%
    09:00 +24°C° 0 mm 6 mps 756 mmHg 37%
    10:00 +26°C° 0 mm 6 mps 757 mmHg 32%
    11:00 +28°C° 0 mm 5 mps 756 mmHg 29%
    12:00 +29°C° 0 mm 5 mps 756 mmHg 26%
    13:00 +30°C° 0 mm 5 mps 756 mmHg 23%
    14:00 +30°C° 0 mm 5 mps 756 mmHg 22%
    15:00 +32°C° 0 mm 5 mps 756 mmHg 22%
    16:00 +32°C° 0 mm 5 mps 756 mmHg 21%
    17:00 +30°C° 0 mm 4 mps 756 mmHg 24%
    18:00 +29°C° 0 mm 4 mps 756 mmHg 27%
    19:00 +29°C° 0 mm 4 mps 756 mmHg 30%
    20:00 +27°C° 0 mm 4 mps 756 mmHg 35%
    21:00 +25°C° 0 mm 4 mps 756 mmHg 41%
    22:00 +23°C° 0 mm 4 mps 756 mmHg 46%
    23:00 +22°C° 0 mm 4 mps 756 mmHg 49%

    25 July, Wednesday

    Time Temperature Precipitation Wind Pressure Humidity
    00:00 +21°C° 0 mm 4 mps 756 mmHg 52%
    01:00 +21°C° 0 mm 4 mps 756 mmHg 55%
    02:00 +20°C° 0 mm 4 mps 756 mmHg 58%
    03:00 +20°C° 0 mm 4 mps 756 mmHg 61%
    04:00 +19°C° 0 mm 4 mps 756 mmHg 64%
    05:00 +21°C° 0 mm 4 mps 757 mmHg 61%
    06:00 +22°C° 0 mm 4 mps 757 mmHg 59%
    07:00 +23°C° 0 mm 4 mps 757 mmHg 56%
    08:00 +26°C° 0 mm 5 mps 757 mmHg 49%
    09:00 +28°C° 0 mm 5 mps 757 mmHg 43%
    10:00 +30°C° 0 mm 5 mps 757 mmHg 36%
    11:00 +32°C° 0 mm 4 mps 757 mmHg 33%
    12:00 +33°C° 0 mm 4 mps 756 mmHg 30%
    13:00 +34°C° 0 mm 4 mps 756 mmHg 27%
    14:00 +34°C° 0 mm 4 mps 756 mmHg 27%
    15:00 +34°C° 0 mm 4 mps 756 mmHg 26%
    16:00 +34°C° 0 mm 4 mps 756 mmHg 25%
    17:00 +34°C° 0 mm 4 mps 756 mmHg 29%
    18:00 +33°C° 0 mm 4 mps 756 mmHg 32%
    19:00 +31°C° 0 mm 3 mps 756 mmHg 35%
    20:00 +29°C° 0 mm 4 mps 756 mmHg 39%
    21:00 +28°C° 0 mm 4 mps 756 mmHg 44%
    22:00 +26°C° 0 mm 4 mps 756 mmHg 49%
    23:00 +25°C° 0 mm 4 mps 756 mmHg 53%
    Show more